This demonstration page uses our WeatherBlox Daily Observations layout. Learn more.

38.89511, -77.03637

Hourly Observations for April 10, 2017

Temp ( °F °C ) Dew Point ( °F °C ) Humidity (%) Winds ( mph kmh ) Pressure ( in mb ) Visibility ( mi km ) Precip ( " mm )
12:52 am 00:52 Mostly Cloudy 55 12.8 42 5.6 62 62 S 7 11 30.15 1021 10 16.09344 0 0
1:52 am 01:52 Mostly Cloudy 54 12.2 41 5 62 62 S 7 11 30.15 1021 10 16.09344 0 0
2:52 am 02:52 Mostly Cloudy 54 12.2 41 5 62 62 Calm 30.15 1021 10 16.09344 0 0
3:52 am 03:52 Mostly Cloudy 53 11.7 41 5 64 64 SE 3 6 30.15 1021 10 16.09344 0 0
4:52 am 04:52 Mostly Cloudy 52 11.1 42 5.6 69 69 Calm 30.15 1021 10 16.09344 0 0
5:52 am 05:52 Mostly Cloudy 51 10.6 43 6.1 74 74 SSW 6 9 30.18 1022 10 16.09344 0 0
6:52 am 06:52 Partly Cloudy 51 10.6 42 5.6 71 71 SSW 3 6 30.18 1022 10 16.09344 0 0
7:52 am 07:52 Partly Cloudy 54 12.2 44 6.7 69 69 S 5 7 30.21 1023 10 16.09344 0 0
8:52 am 08:52 Partly Cloudy 60 15.6 43 6.1 53 53 SW 13 20 30.21 1023 10 16.09344 0 0
9:52 am 09:52 Mostly Cloudy 65 18.3 43 6.1 45 45 S 8 13 30.21 1023 10 16.09344 0 0
10:52 am 10:52 Mostly Cloudy 66 18.9 46 7.8 49 49 S 10 17 30.21 1023 10 16.09344 0 0
11:52 am 11:52 Mostly Cloudy 74 23.3 45 7.2 36 36 SSW 14 22 30.18 1022 10 16.09344 0 0
12:52 pm 12:52 Cloudy 75 23.9 47 8.3 37 37 S 13 20 30.18 1022 10 16.09344 0 0
1:52 pm 13:52 Cloudy 77 25 46 7.8 33 33 S 15 24 30.15 1021 10 16.09344 0 0
2:52 pm 14:52 Mostly Cloudy 81 27.2 43 6.1 26 26 S 16 26 30.12 1020 10 16.09344 0 0
3:52 pm 15:52 Mostly Cloudy 82 27.8 40 4.4 22 22 SSW 14 22 30.09 1019 10 16.09344 0 0
4:52 pm 16:52 Mostly Cloudy 77 25 46 7.8 33 33 S 14 22 30.09 1019 10 16.09344 0 0
5:52 pm 17:52 Mostly Cloudy 80 26.7 43 6.1 27 27 S 12 19 30.09 1019 10 16.09344 0 0
6:52 pm 18:52 Mostly Cloudy 74 23.3 48 8.9 40 40 S 14 22 30.09 1019 10 16.09344 0 0
7:52 pm 19:52 Mostly Cloudy 73 22.8 48 8.9 41 41 S 13 20 30.09 1019 10 16.09344 0 0
8:52 pm 20:52 Mostly Cloudy 70 21.1 50 10 49 49 S 10 17 30.12 1020 10 16.09344 0 0
9:52 pm 21:52 Mostly Cloudy 68 20 50 10 53 53 S 10 17 30.12 1020 10 16.09344 0 0
10:52 pm 22:52 Cloudy 67 19.4 50 10 55 55 S 10 17 30.12 1020 10 16.09344 0 0
11:52 pm 23:52 Cloudy 67 19.4 49 9.4 53 53 S 9 15 30.12 1020 10 16.09344 0 0

Powered by AerisWeather